Home   Weather   Pangnirtung   Past weeks
Flag for Canada

Past Weather in Pangnirtung, Nunavut, Canada — Yesterday and Last 2 Weeks

Now
34 °F

Mostly cloudy.


Feels Like: 23 °F
Forecast: 28 / 18 °F
Wind: 17 mph from Southwest

Location: Broughton Island Airport

Current Time: Oct 14, 2019 at 5:19:21 am

Latest Report: Oct 14, 2019 at 4:00 am


Visibility: 9 mi

Pressure: 29.97 "Hg

Humidity: 65%

Dew Point: 23 °F

Location of PangnirtungLocation

Past Weather in Pangnirtung — Graph

°F

Pangnirtung Temperature Yesterday

Maximum temperature yesterday: 34 °F (at 1:00 pm)
Minimum temperature yesterday: 27 °F (at 6:00 pm)
Average temperature yesterday: 31 °F

High & Low Weather Summary for the Past Weeks

 TemperatureHumidityPressure
High41 °F (Oct 1, 3:00 pm)100% (Sep 29, 4:00 am)30.09 "Hg (Sep 29, 4:00 am)
Low27 °F (Oct 13, 6:00 pm)30% (Oct 5, 11:00 am)29.41 "Hg (Oct 5, 8:00 am)
Average35 °F84%29.77 "Hg
* Reported Sep 29 4:00 am — Oct 14 4:00 am, Pangnirtung. Weather by CustomWeather, © 2019

Note: Actual official high and low records may vary slightly from our data, if they occured in-between our weather recording intervals... More about our weather records

Advertising

Pangnirtung Weather History for the Previous 24 Hours

Scroll right to see more
 ConditionsComfort  
Time TempWeatherWind HumidityBarometerVisibility
4:00 am
Mon, Oct 14
34 °FMostly cloudy.17 mph65%29.97 "Hg9 mi
3:00 am34 °FMostly cloudy.12 mph48%29.98 "Hg9 mi
2:00 am32 °FOvercast.13 mph64%29.98 "Hg9 mi
1:00 am30 °FMostly cloudy.9 mph75%29.99 "Hg9 mi
12:00 am30 °FOvercast.3 mph64%29.98 "Hg9 mi
11:00 pm
Sun, Oct 13
30 °FPassing clouds.8 mph64%29.99 "Hg9 mi
10:00 pm28 °FPassing clouds.7 mph69%30.00 "Hg9 mi
9:00 pm28 °FPassing clouds.8 mph74%30.01 "Hg9 mi
8:00 pm27 °FClear.6 mph80%30.00 "Hg9 mi
7:00 pm27 °FClear.8 mph80%30.01 "Hg9 mi
6:00 pm27 °FClear.3 mph80%30.00 "Hg9 mi
5:00 pm28 °FClear.2 mph74%30.00 "Hg9 mi
4:33 pm30 °FHaze.5 mph69%29.99 "Hg2 mi
4:00 pm32 °FSunny.8 mph64%29.99 "Hg9 mi
3:00 pm34 °FSunny.6 mph65%29.99 "Hg9 mi
2:00 pm34 °FSunny.8 mph60%29.97 "Hg9 mi
1:00 pm34 °FScattered clouds.3 mph56%29.96 "Hg15 mi
12:00 pm32 °FPassing clouds.7 mph60%29.97 "Hg15 mi
11:00 am32 °FPassing clouds.5 mph64%29.97 "Hg15 mi
10:00 am32 °FPassing clouds.7 mph64%29.98 "Hg15 mi
9:00 am32 °FPassing clouds.9 mph64%29.97 "Hg15 mi
8:00 am32 °FScattered clouds.5 mph60%29.96 "Hg15 mi
7:00 am32 °FPassing clouds.12 mph64%29.96 "Hg15 mi
6:00 am32 °FPassing clouds.12 mph60%29.94 "Hg15 mi
5:00 am32 °FOvercast.8 mph55%29.94 "Hg9 mi
Weather by CustomWeather, © 2019

See weather overview